Regional Weather Roundup
Issued by NWS

Home | Current Version | Previous Version | Graphics & Text | Print | Product List | Glossary On
Versions: 1 2 3 4 5 6 7 8 9 10 11 12 13 14 15 16 17 18 19 20 21 22 23 24 25 26 27 28 29 30 31 32 33 34 35 36 37 38 39 40 41 42 43 44 45 46 47 48 49 50
000
ASUS43 KDMX 291104
RWRIA

WEATHER ROUNDUP FOR IOWA
NATIONAL WEATHER SERVICE DES MOINES IA
  ISSUED BY NWS QUAD CITIES IA IL
500 AM CST THU JAN 29 2015

NOTE: "FAIR" INDICATES FEW OR NO CLOUDS BELOW 12,000 FEET WITH NO
SIGNIFICANT WEATHER AND/OR OBSTRUCTIONS TO VISIBILITY.

* - THESE STATIONS ARE NOT NWS STATIONS...THUS NOT UNDER NWS
QUALITY CONTROL.  THEY ALSO DO NOT REPORT WEATHER SUCH
AS PRECIPITATION OR FOG.

IAZ001>003-012>014-020>022-031>034-043>046-291200-
   NORTHWEST IOWA

CITY           SKY/WX    TMP DP  RH WIND       PRES   REMARKS
CARROLL *      CLOUDY    34  32  93 NW23G31   30.07R WCI  22
CHEROKEE *     CLOUDY    33  32  97 NW21G28   30.11R WCI  20
DENNISON *     CLOUDY    34  32  93 NW21G30   30.09R WCI  22
LE MARS *      CLOUDY    34  30  86 NW22      30.17R WCI  22
ORANGE CITY *  CLOUDY    34  28  80 NW16G24   30.14R WCI  23
SHELDON *      CLOUDY    32  30  93 NW26G37   30.12R WCI  18
SIOUX CITY     CLOUDY    35  28  75 NW29      30.17R WCI  22
SPENCER        CLOUDY    33  28  81 NW24G32   30.09R WCI  20
STORM LAKE *   CLOUDY    32  30  93 NW29G37   30.08R WCI  18
$$

IAZ055>058-069>071-079>083-090>094-291200-
   SOUTHWEST IOWA

CITY           SKY/WX    TMP DP  RH WIND       PRES   REMARKS
ATLANTIC *     CLOUDY    36  30  80 N23G31    30.10R WCI  24
AUDUBON *      CLOUDY    36  30  80 NW20G29   30.09R WCI  25
CLARINDA *     CLOUDY    37  30  75 N24       30.13R WCI  26
COUNCIL BLFS * CLOUDY    36  30  80 NW21G32   30.13R WCI  24
CRESTON *      CLOUDY    36  32  87 NW24G31   30.05R WCI  24
HARLAN *       CLOUDY    36  34  93 NW21G29   30.15R WCI  24
LAMONI         CLOUDY    37  30  75 NW20G28   30.04R WCI  27
RED OAK *      CLOUDY    37  28  70 N20G35    30.13R WCI  27
SHENANDOAH *   CLOUDY    37  30  75 N22G33    30.15R WCI  27
$$

IAZ047>049-059>061-072>074-084-291200-
   CENTRAL IOWA

CITY           SKY/WX    TMP DP  RH WIND       PRES   REMARKS
AMES           CLOUDY    34  30  85 NW24G35   30.01R WCI  21
ANKENY *       CLOUDY    36  34  93 NW16G24   30.02R FOG     WCI  26
BOONE *        CLOUDY    34  34 100 NW20G25   30.01R WCI  22
CHARITON *     CLOUDY    36  32  87 NW17G26   30.01R WCI  25
DES MOINES     DRIZZLE   36  32  85 N21G30    30.03R WCI  25
GRINNELL *     CLOUDY    34  31  87 NW15G25   29.95R WCI  24
KNOXVILLE *    CLOUDY    36  30  80 NW22G28   29.98R WCI  24
MARSHALLTOWN   CLOUDY    33  31  92 NW22G29   29.96R FOG     WCI  21
NEWTON *       CLOUDY    34  32  93 NW20G29   29.98R WCI  22
PELLA *        MOCLDY    35  32  89 NW28G36   29.99R FOG     WCI  22
PERRY *          N/A     35  32  88 NW22G29   30.05R WCI  24
$$

IAZ004>006-015-016-023>025-035-036-291200-
   NORTH CENTRAL IOWA

CITY           SKY/WX    TMP DP  RH WIND       PRES   REMARKS
ALGONA *       CLOUDY    32  32 100 NW28G40   30.03R WCI  18
CLARION *      CLOUDY    32  32 100 NW25G32   30.00R FOG     WCI  19
ESTHERVILLE    CLOUDY    31  28  89 NW30G39   30.06R WCI  16
FORT DODGE *   CLOUDY    34  28  80 NW13G20   30.04R WCI  25
MASON CITY     CLOUDY    33  31  92 NW26      29.97R WCI  20
WEBSTER CITY * CLOUDY    34  34 100 NW23G30   30.00R WCI  22
IOWA FALLS *   CLOUDY    33  32  94 NW22G28   29.98R WCI  21
$$

IAZ007>011-017>019-026>030-037>042-050>054-066-291200-
   NORTHEAST IOWA

CITY           SKY/WX    TMP DP  RH WIND       PRES   REMARKS
CEDAR RAPIDS   CLOUDY    33  31  92 NW20      29.87R WCI  21
CHARLES CITY * CLOUDY    32  32 100 NW18      29.92R FOG     WCI  20
CLINTON *      CLOUDY    34  28  80 NW14      29.81R WCI  24
DECORAH *      CLOUDY    32  30  93 N21G28    29.87R WCI  20
DUBUQUE        CLOUDY    31  29  92 NW22      29.81R FOG     WCI  18
MONTICELLO *   CLOUDY    34  32  93 NW20      29.84R WCI  22
OELWEIN *      CLOUDY    32  30  93 NW23G30   29.89R FOG     WCI  19
WATERLOO       CLOUDY    33  30  88 NW17      29.92R WCI  22
$$

IAZ064-065-067-068-078-291200-
   EAST CENTRAL IOWA

CITY           SKY/WX    TMP DP  RH WIND       PRES   REMARKS
DAVENPORT      CLOUDY    33  29  85 NW15      29.80R WCI  23
IOWA CITY      CLOUDY    35  31  85 NW17G25   29.89R WCI  25
MT. PLEASANT * CLOUDY    35  31  85 NW18G29   29.87R WCI  24
MUSCATINE *    CLOUDY    36  32  87 NW18G30   29.86R WCI  25
QUAD CITIES    CLOUDY    34  30  85 NW17      29.79R WCI  23
$$

IAZ062-063-075>077-085>089-095>099-291200-
   SOUTHEAST IOWA

CITY           SKY/WX    TMP DP  RH WIND       PRES   REMARKS
BURLINGTON     CLOUDY    36  32  85 NW16G31   29.84R WCI  26
FAIRFIELD *    CLOUDY    36  30  80 NW20G31   29.91R WCI  25
FORT MADISON * CLOUDY    36  34  93 NW22G32   29.86R WCI  24
KEOKUK *       CLOUDY    37  34  87 NW20G30   29.87R WCI  27
OTTUMWA        CLOUDY    35  30  82 NW23G31   29.95R WCI  23
WASHINGTON *   CLOUDY    36  36 100 NW22G29   29.89R WCI  24
$$

ABBREVIATIONS USED IN REMARKS
   TC - TEMPERATURES IN CELSIUS
  WCI - WIND CHILL INDEX
   HX - HEAT INDEX
  VSB - VISIBILITY
$$



USA.gov is the U.S. government's official web portal to all federal, state and local government web resources and services.